Weather History for Houghton, MI

Change the Weather History Date:

Monday, May 13, 2013

  Actual Average Record
Temperature  
Mean Temperature 40 °F -  
Max Temperature 54 °F 59 °F 82 °F (1987)
Min Temperature 28 °F 40 °F 23 °F (1953)
Degree Days  
Heating Degree Days 25    
Moisture  
Dew Point 23 °F    
Average Humidity 55    
Maximum Humidity 82    
Minimum Humidity 28    
Precipitation  
Precipitation 0.00 in - - ()
Sea Level Pressure  
Sea Level Pressure 30.04 in    
Wind  
Wind Speed 11 mph (WNW)    
Max Wind Speed 17 mph    
Max Gust Speed 23 mph    
Visibility 10 miles    
Events      
Averages and records for this station are not official NWS values.
T = Trace of Precipitation, MM = Missing Value Source: NWS Daily Summary

Daily Weather History Graph

Daily Weather History Graph

Search for Another Location

Airport:

Trip Planner

Search our weather history database for the weather conditions in past years. The results will help you decide how hot, cold, wet, or windy it might be!

Date:

Astronomy

May. 13, 2013 Rise Set
Actual Time 6:20 AM EDT 9:21 PM EDT
Civil Twilight 5:44 AM EDT 9:57 PM EDT
Nautical Twilight 4:58 AM EDT 10:43 PM EDT
Astronomical Twilight 4:02 AM EDT 11:40 PM EDT
Moon 9:04 AM EDT (5/13) No Moon Set
Length of Visible Light 16h 12m
Length of Day
15h 00m
Waxing Crescent, 12% of the Moon is Illuminated
May 13
Waxing Crescent
May 18
First Quarter
May 25
Full
May 31
Last Quarter
Jun 8
New

Hourly Weather History & Observations

Time (EDT) Temp. Windchill Dew Point Humidity Pressure Visibility Wind Dir Wind Speed Gust Speed Precip Events Conditions
12:53 AM 30.0 °F 21.7 °F 24.1 °F 79% 30.12 in 10.0 mi WNW 9.2 mph - N/A   Clear
1:53 AM 28.9 °F 21.1 °F 24.1 °F 82% 30.11 in 10.0 mi WNW 8.1 mph - N/A   Clear
2:53 AM 28.9 °F 21.9 °F 24.1 °F 82% 30.11 in 10.0 mi WNW 6.9 mph - N/A   Clear
3:53 AM 30.9 °F 23.5 °F 25.0 °F 79% 30.10 in 10.0 mi West 8.1 mph - N/A   Clear
4:53 AM 30.9 °F 24.3 °F 25.0 °F 79% 30.09 in 10.0 mi West 6.9 mph - N/A   Clear
5:53 AM 32.0 °F 23.6 °F 24.1 °F 73% 30.10 in 10.0 mi WNW 10.4 mph - N/A   Clear
6:53 AM 33.1 °F 24.9 °F 21.9 °F 64% 30.10 in 10.0 mi West 10.4 mph - N/A   Clear
7:53 AM 36.0 °F 27.5 °F 23.0 °F 59% 30.11 in 10.0 mi West 12.7 mph - N/A   Clear
8:53 AM 39.0 °F 31.4 °F 24.1 °F 55% 30.12 in 10.0 mi West 12.7 mph - N/A   Clear
9:53 AM 42.1 °F 34.5 °F 24.1 °F 49% 30.13 in 10.0 mi WNW 15.0 mph - N/A   Clear
10:53 AM 44.1 °F 36.5 °F 21.9 °F 42% 30.12 in 6.0 mi West 17.3 mph - N/A   Haze
11:53 AM 46.0 °F 39.3 °F 21.0 °F 37% 30.12 in 8.0 mi WNW 16.1 mph - N/A   Clear
12:15 PM 46.4 °F 39.5 °F 21.2 °F 37% 30.08 in 10.0 mi West 17.3 mph - N/A   Partly Cloudy
12:53 PM 46.9 °F - 21.0 °F 36% 30.10 in 10.0 mi West 15.0 mph - N/A   Clear
1:53 PM 48.0 °F - 19.0 °F 32% 30.07 in 10.0 mi WNW 11.5 mph 18.4 mph N/A   Clear
2:53 PM 50.0 °F - 18.0 °F 28% 30.04 in 10.0 mi WNW 5.8 mph - N/A   Clear
4:53 PM 52.0 °F - 23.0 °F 32% 30.00 in 10.0 mi East 9.2 mph - N/A   Clear
5:53 PM 50.0 °F - 26.1 °F 39% 29.97 in 10.0 mi East 17.3 mph 23.0 mph N/A   Clear
6:53 PM 43.0 °F 37.2 °F 24.1 °F 47% 29.96 in 10.0 mi East 10.4 mph - N/A   Overcast
7:53 PM 42.8 °F 38.0 °F 24.8 °F 49% 29.91 in 10.0 mi East 8.1 mph - N/A   Overcast
8:53 PM 42.1 °F 36.1 °F 25.0 °F 51% 29.93 in 10.0 mi East 10.4 mph - N/A   Overcast
9:53 PM 39.2 °F 31.6 °F 24.8 °F 56% 29.88 in 10.0 mi East 12.7 mph - N/A   Overcast
10:53 PM 39.0 °F 31.8 °F 26.1 °F 60% 29.86 in 10.0 mi East 11.5 mph - N/A   Overcast
11:53 PM 39.0 °F 31.4 °F 28.0 °F 65% 29.83 in 10.0 mi ENE 12.7 mph - N/A   Overcast